This is the latest recevied weather packets stored in our database for station/object CE7LGA-10. If no packets are shown the sender has not sent any weather packets the latest 10 day(s).
| Time | Temp. | Humidity | Pressure | Rain* | Wind** | Luminosity | Snow |
|---|---|---|---|---|---|---|---|
| 1777555330 | 14.44° C | 70% | 1001.1 hPa | - | - | - | - |
| 1777554430 | 13.89° C | 70% | 1001.1 hPa | - | - | - | - |
| 1777553529 | 14.44° C | 70% | 1000.9 hPa | - | - | - | - |
| 1777552645 | 14.44° C | 71% | 1000.8 hPa | - | - | - | - |
| 1777551745 | 14.44° C | 72% | 1000.6 hPa | - | - | - | - |
| 1777550845 | 14.44° C | 74% | 1000.5 hPa | - | - | - | - |
| 1777549945 | 14.44° C | 78% | 1000.4 hPa | - | - | - | - |
| 1777549045 | 13.89° C | 72% | 1000.4 hPa | - | - | - | - |
| 1777548145 | 13.89° C | 71% | 1000.3 hPa | - | - | - | - |
| 1777547245 | 13.89° C | 70% | 1000.4 hPa | - | - | - | - |
| 1777546345 | 13.33° C | 69% | 1000.6 hPa | - | - | - | - |
| 1777545445 | 12.78° C | 69% | 1000.7 hPa | - | - | - | - |
| 1777544545 | 12.78° C | 68% | 1000.7 hPa | - | - | - | - |
| 1777543644 | 12.78° C | 69% | 1000.6 hPa | - | - | - | - |
| 1777542744 | 12.78° C | 68% | 1000.5 hPa | - | - | - | - |
| 1777541844 | 12.78° C | 68% | 1000.6 hPa | - | - | - | - |
| 1777540944 | 13.33° C | 69% | 1000.6 hPa | - | - | - | - |
| 1777540044 | 13.33° C | 69% | 1001.1 hPa | - | - | - | - |
| 1777539144 | 13.33° C | 68% | 1001.4 hPa | - | - | - | - |
| 1777538244 | 13.33° C | 68% | 1001.8 hPa | - | - | - | - |
| 1777537344 | 13.33° C | 68% | 1001.8 hPa | - | - | - | - |
| 1777535544 | 13.89° C | 68% | 1002.1 hPa | - | - | - | - |
| 1777534644 | 13.89° C | 68% | 1002.1 hPa | - | - | - | - |
| 1777533743 | 13.89° C | 67% | 1002.2 hPa | - | - | - | - |
| 1777532843 | 13.89° C | 67% | 1002.3 hPa | - | - | - | - |
* Rain since midnight (hover to see other rain measurements)
** Current wind speed in m/s (hover to see current wind gust speed)